Weather History for KWLD - December, 2013

Change the Weather History Date:

Saturday, December 14, 2013

  Actual Average Record
Temperature  
Mean Temperature 29 °F -  
Max Temperature 39 °F 44 °F 64 °F (2011)
Min Temperature 19 °F 26 °F -2 °F (2000)
Degree Days  
Heating Degree Days 36    
Moisture  
Dew Point 24 °F    
Average Humidity 76    
Maximum Humidity 93    
Minimum Humidity 49    
Precipitation  
Precipitation 0.00 in - - ()
Sea Level Pressure  
Sea Level Pressure 30.16 in    
Wind  
Wind Speed 13 mph (NNW)    
Max Wind Speed 22 mph    
Max Gust Speed 30 mph    
Visibility 8 miles    
Events      
Averages and records for this station are not official NWS values.
T = Trace of Precipitation, MM = Missing Value Source: NWS Daily Summary

Daily Weather History Graph

Daily Weather History Graph

Search for Another Location

Airport or City:

Trip Planner

Search our weather history database for the weather conditions in past years. The results will help you decide how hot, cold, wet, or windy it might be!

Date:

Astronomy

Dec. 14, 2013 Rise Set
Actual Time 7:34 AM CST 5:11 PM CST
Civil Twilight 7:05 AM CST 5:40 PM CST
Nautical Twilight 6:32 AM CST 6:13 PM CST
Astronomical Twilight 6:00 AM CST 6:45 PM CST
Moon 3:32 PM CST (12/14) 4:58 AM CST (12/14)
Length of Visible Light 10h 35m
Length of Day
9h 37m
Waxing Gibbous, 94% of the Moon is Illuminated
Dec 14
Waxing Gibbous
Dec 17
Full
Dec 25
Last Quarter
Jan 1
New
Jan 7
First Quarter

Hourly Weather History & Observations

Time (CST) Temp. Windchill Dew Point Humidity Pressure Visibility Wind Dir Wind Speed Gust Speed Precip Events Conditions
12:23 AM 37.4 °F 32.1 °F 35.6 °F 93% 29.89 in 7.0 mi NW 6.9 mph - N/A   Overcast
12:54 AM 37.9 °F 31.5 °F 36.0 °F 93% 29.91 in 7.0 mi NNW 9.2 mph - N/A   Overcast
1:45 AM 37.4 °F 27.2 °F 35.6 °F 93% 29.91 in 9.0 mi North 19.6 mph 29.9 mph N/A   Overcast
1:54 AM 37.9 °F 27.9 °F 35.1 °F 89% 29.94 in 8.0 mi North 19.6 mph 28.8 mph N/A   Overcast
2:45 AM 35.6 °F 24.5 °F 32.0 °F 87% 29.97 in 5.0 mi North 20.7 mph 25.3 mph N/A   Overcast
2:54 AM 35.1 °F 23.5 °F 30.9 °F 85% 29.99 in 6.0 mi North 21.9 mph 27.6 mph N/A   Overcast
3:54 AM 33.1 °F 22.2 °F 28.9 °F 85% 30.01 in 5.0 mi North 17.3 mph 26.5 mph N/A   Overcast
4:54 AM 30.9 °F 20.2 °F 27.0 °F 85% 30.05 in 6.0 mi North 15.0 mph 26.5 mph N/A   Overcast
5:54 AM 28.9 °F 15.4 °F 24.1 °F 82% 30.10 in 6.0 mi NNW 21.9 mph 28.8 mph N/A   Haze
6:54 AM 28.0 °F 15.3 °F 23.0 °F 81% 30.15 in 6.0 mi NNW 18.4 mph 26.5 mph N/A   Haze
7:54 AM 27.0 °F 13.9 °F 23.0 °F 85% 30.17 in 6.0 mi North 18.4 mph - N/A   Overcast
8:54 AM 27.0 °F 14.3 °F 23.0 °F 85% 30.21 in 6.0 mi NNW 17.3 mph 24.2 mph N/A   Overcast
9:50 AM 28.4 °F 16.2 °F 21.2 °F 74% 30.20 in 7.0 mi North 17.3 mph 25.3 mph N/A   Overcast
9:54 AM 28.9 °F 16.5 °F 21.9 °F 75% 30.23 in 7.0 mi North 18.4 mph 25.3 mph N/A   Overcast
10:54 AM 28.9 °F 16.1 °F 21.9 °F 75% 30.25 in 8.0 mi North 19.6 mph - N/A   Overcast
11:54 AM 30.9 °F 20.7 °F 21.0 °F 67% 30.25 in 8.0 mi NNW 13.8 mph - N/A   Scattered Clouds
12:54 PM 34.0 °F 25.0 °F 21.0 °F 59% 30.24 in 7.0 mi NNW 12.7 mph 19.6 mph N/A   Clear
1:54 PM 37.0 °F 28.5 °F 21.0 °F 52% 30.23 in 8.0 mi NW 13.8 mph - N/A   Clear
2:54 PM 39.0 °F 31.8 °F 21.0 °F 49% 30.22 in 9.0 mi NW 11.5 mph - N/A   Clear
3:54 PM 39.0 °F 31.8 °F 21.0 °F 49% 30.24 in 9.0 mi NW 11.5 mph - N/A   Clear
4:54 PM 35.1 °F 29.3 °F 21.0 °F 57% 30.27 in 9.0 mi NNW 6.9 mph - N/A   Clear
5:54 PM 30.0 °F 26.5 °F 19.9 °F 66% 30.27 in 10.0 mi WNW 3.5 mph - N/A   Clear
6:54 PM 28.0 °F - 19.0 °F 69% 30.27 in 10.0 mi Calm Calm - N/A   Clear
7:54 PM 24.1 °F - 17.1 °F 75% 30.29 in 9.0 mi Calm Calm - N/A   Clear
8:54 PM 24.1 °F - 18.0 °F 77% 30.30 in 8.0 mi Calm Calm - N/A   Clear
9:54 PM 23.0 °F - 18.0 °F 81% 30.30 in 9.0 mi Calm Calm - N/A   Clear
10:54 PM 19.9 °F - 16.0 °F 85% 30.30 in 8.0 mi Calm Calm - N/A   Clear
11:54 PM 21.9 °F - 18.0 °F 85% 30.28 in 8.0 mi Calm Calm - N/A   Clear